London-Corbin, KY

10:15 PM EDT on April 23, 2017 (GMT -0400)
London-Corbin / McKee

Weather History for KLOZ - January, 2014

Change the Weather History Date:

Tuesday, January 7, 2014

  Actual Average Record
Temperature  
Mean Temperature 5 °F 35 °F  
Max Temperature 13 °F 44 °F 68 °F (2008)
Min Temperature -4 °F 26 °F -4 °F (1970)
Degree Days  
Heating Degree Days 60 30  
Month to date heating degree days 281 206  
Since 1 July heating degree days 1888 1858  
Cooling Degree Days 0 0  
Month to date cooling degree days 0 0  
Year to date cooling degree days 0 0  
Moisture  
Dew Point -6 °F    
Average Humidity 65    
Maximum Humidity 79    
Minimum Humidity 50    
Precipitation  
Precipitation 0.00 in 0.11 in 1.85 in (1998)
Month to date precipitation 0.39 0.81  
Year to date precipitation 0.39  
Sea Level Pressure  
Sea Level Pressure 30.51 in    
Wind  
Wind Speed 6 mph (SSW)    
Max Wind Speed 22 mph    
Max Gust Speed 26 mph    
Visibility 10 miles    
Events      
T = Trace of Precipitation, MM = Missing Value Source: NWS Daily Summary

Daily Weather History Graph

Daily Weather History Graph

Search for Another Location

Airport or City:

Trip Planner

Search our weather history database for the weather conditions in past years. The results will help you decide how hot, cold, wet, or windy it might be!

Date:

Astronomy

Jan. 07, 2014 Rise Set
Actual Time 7:50 AM EST 5:35 PM EST
Civil Twilight 7:21 AM EST 6:04 PM EST
Nautical Twilight 6:49 AM EST 6:36 PM EST
Astronomical Twilight 6:17 AM EST 7:07 PM EST
Moon 11:48 AM EST (1/7) No Moon Set
Length of Visible Light 10h 42m
Length of Day
9h 45m
Waxing Crescent, 45% of the Moon is Illuminated
Jan 7
Waxing Crescent
Jan 7
First Quarter
Jan 15
Full
Jan 24
Last Quarter
Jan 30
New

Hourly Weather History & Observations

Time (EST) Temp. Windchill Dew Point Humidity Pressure Visibility Wind Dir Wind Speed Gust Speed Precip Events Conditions
12:53 AM -2.0 °F -23.3 °F -13.0 °F 60% 30.51 in 10.0 mi West 17.3 mph 26.5 mph N/A   Clear
1:41 AM -2.9 °F -19.8 °F -13.0 °F 62% 30.44 in 10.0 mi West 10.4 mph - N/A   Mostly Cloudy
1:53 AM -2.9 °F -18.8 °F -13.0 °F 62% 30.52 in 10.0 mi West 9.2 mph - N/A   Scattered Clouds
2:53 AM -2.9 °F -11.2 °F -11.9 °F 65% 30.54 in 10.0 mi WSW 3.5 mph - N/A   Clear
3:53 AM -4.0 °F - -11.0 °F 72% 30.53 in 10.0 mi Calm Calm - N/A   Clear
4:53 AM -4.0 °F -12.4 °F -9.9 °F 76% 30.52 in 10.0 mi SSW 3.5 mph - N/A   Clear
5:53 AM -4.0 °F -12.4 °F -11.0 °F 72% 30.52 in 10.0 mi WSW 3.5 mph - N/A   Clear
6:53 AM -2.9 °F -11.2 °F -9.9 °F 72% 30.53 in 10.0 mi WSW 3.5 mph - N/A   Clear
7:53 AM -2.9 °F -11.2 °F -9.0 °F 75% 30.56 in 10.0 mi SW 3.5 mph - N/A   Clear
8:53 AM -2.0 °F -13.9 °F -8.0 °F 76% 30.58 in 10.0 mi SW 5.8 mph - N/A   Clear
9:53 AM 1.0 °F -12.9 °F -8.0 °F 66% 30.61 in 10.0 mi SW 8.1 mph - N/A   Clear
10:53 AM 3.0 °F -4.4 °F -7.1 °F 63% 30.61 in 10.0 mi SW 3.5 mph - N/A   Clear
11:53 AM 5.0 °F -9.1 °F -6.0 °F 61% 30.58 in 10.0 mi SSW 9.2 mph - N/A   Clear
12:53 PM 7.0 °F -3.3 °F -5.1 °F 58% 30.53 in 10.0 mi SW 5.8 mph - N/A   Clear
1:53 PM 10.0 °F - -5.1 °F 51% 30.51 in 10.0 mi North - - N/A   Clear
2:53 PM 12.0 °F 0.5 °F -2.9 °F 51% 30.50 in 10.0 mi South 8.1 mph - N/A   Clear
3:53 PM 12.0 °F 0.5 °F -2.0 °F 53% 30.48 in 10.0 mi South 8.1 mph - N/A   Clear
4:53 PM 12.9 °F 2.6 °F -0.9 °F 54% 30.49 in 10.0 mi South 6.9 mph - N/A   Clear
5:53 PM 12.9 °F 3.8 °F -0.9 °F 54% 30.48 in 10.0 mi South 5.8 mph - N/A   Clear
6:53 PM 12.0 °F 5.9 °F -0.9 °F 56% 30.48 in 10.0 mi South 3.5 mph - N/A   Clear
7:53 PM 12.0 °F 4.1 °F -0.9 °F 56% 30.47 in 10.0 mi South 4.6 mph - N/A   Clear
8:53 PM 10.9 °F - -0.9 °F 59% 30.47 in 10.0 mi Calm Calm - N/A   Clear
9:53 PM 10.9 °F 2.9 °F -0.0 °F 61% 30.46 in 10.0 mi South 4.6 mph - N/A   Clear
10:53 PM 12.0 °F 5.9 °F 1.0 °F 61% 30.45 in 10.0 mi South 3.5 mph - N/A   Clear
11:53 PM 10.9 °F 2.9 °F 1.0 °F 64% 30.44 in 10.0 mi South 4.6 mph - N/A   Clear